Ludington, MI

8:49 PM EST on November 13, 2019 (GMT -0500)
Mason County

Weather History for KLDM - October, 2019

Change the Weather History Date:

Wednesday, October 23, 2019

  Actual Average Record
Temperature  
Mean Temperature 46 °F -  
Max Temperature 50 °F 57 °F 77 °F (1963)
Min Temperature 42 °F 39 °F 26 °F (2002)
Degree Days  
Heating Degree Days 19    
Moisture  
Dew Point 37 °F    
Average Humidity 68    
Maximum Humidity 90    
Minimum Humidity 50    
Precipitation  
Precipitation 0.11 in - - ()
Sea Level Pressure  
Sea Level Pressure 29.82 in    
Wind  
Wind Speed 14 mph (WSW)    
Max Wind Speed 21 mph    
Max Gust Speed 30 mph    
Visibility 10 miles    
Events Rain    
Averages and records for this station are not official NWS values.
T = Trace of Precipitation, MM = Missing Value Source: NWS Daily Summary

Daily Weather History Graph

Daily Weather History Graph

Search for Another Location

Airport or City:

Astronomy

Oct. 23, 2019 Rise Set
Actual Time 8:10 AM EDT 6:49 PM EDT
Civil Twilight 7:40 AM EDT 7:18 PM EDT
Nautical Twilight 7:06 AM EDT 7:52 PM EDT
Astronomical Twilight 6:33 AM EDT 8:25 PM EDT
Moon 2:12 AM EDT (10/23) 4:52 PM EDT (10/23)
Length of Visible Light 11h 38m
Length of Day
10h 39m
Waning Crescent, 27% of the Moon is Illuminated
Oct 23
Waning Crescent
Oct 27
New
Nov 4
First Quarter
Nov 12
Full
Nov 19
Last Quarter

Hourly Weather History & Observations

Time (EDT) Temp. Windchill Dew Point Humidity Pressure Visibility Wind Dir Wind Speed Gust Speed Precip Events Conditions
12:17 AM 46.6 °F - 37.0 °F 69% 29.62 in 10.0 mi WSW 17.3 mph 25.3 mph N/A   Overcast
12:35 AM 46.0 °F 38.8 °F 38.8 °F 76% 29.62 in 10.0 mi WSW 18.4 mph 24.2 mph N/A   Overcast
12:36 AM 46.0 °F 39.0 °F 38.8 °F 76% 29.62 in 10.0 mi WSW 17.3 mph 24.2 mph N/A   Overcast
12:55 AM 46.4 °F 39.0 °F 37.4 °F 71% 29.63 in 10.0 mi WSW 19.6 mph 29.9 mph N/A   Overcast
1:15 AM 46.0 °F 39.0 °F 37.4 °F 72% 29.63 in 10.0 mi WSW 17.3 mph 29.9 mph N/A   Overcast
1:56 AM 45.9 °F 38.5 °F 37.6 °F 73% 29.64 in 10.0 mi WSW 18.4 mph 28.8 mph N/A   Overcast
2:15 AM 45.9 °F 40.4 °F 37.0 °F 71% 29.65 in 10.0 mi WSW 11.5 mph 26.5 mph N/A   Overcast
2:35 AM 45.9 °F 39.4 °F 36.7 °F 70% 29.65 in 10.0 mi WSW 15.0 mph 25.3 mph N/A   Overcast
2:59 AM 45.9 °F 40.0 °F 37.4 °F 72% 29.66 in 10.0 mi West 12.7 mph 18.4 mph N/A   Overcast
3:17 AM 46.0 °F 39.6 °F 36.7 °F 70% 29.66 in 10.0 mi West 15.0 mph 23.0 mph N/A   Overcast
3:35 AM 46.0 °F 39.3 °F 37.0 °F 71% 29.66 in 10.0 mi West 16.1 mph 21.9 mph N/A   Overcast
3:36 AM 46.0 °F 39.0 °F 37.0 °F 71% 29.66 in 10.0 mi West 17.3 mph 25.3 mph N/A   Overcast
3:55 AM 46.2 °F 40.5 °F 36.3 °F 68% 29.66 in 10.0 mi West 12.7 mph 21.9 mph N/A   Overcast
4:15 AM 46.4 °F 39.0 °F 36.0 °F 67% 29.66 in 10.0 mi West 19.6 mph 29.9 mph N/A   Overcast
4:38 AM 43.7 °F 36.6 °F 39.2 °F 84% 29.68 in 5.0 mi West 15.0 mph 23.0 mph 0.03 in Rain Heavy Rain
4:56 AM 42.3 °F 37.9 °F 39.2 °F 89% 29.68 in 7.0 mi West 6.9 mph 16.1 mph 0.04 in Rain Light Rain
5:15 AM 43.7 °F 38.1 °F 40.1 °F 87% 29.68 in 10.0 mi West 10.4 mph 17.3 mph N/A   Overcast
5:16 AM 43.7 °F 38.6 °F 40.1 °F 87% 29.68 in 10.0 mi West 9.2 mph 17.3 mph N/A   Overcast
5:35 AM 44.6 °F 38.4 °F 38.5 °F 79% 29.68 in 10.0 mi West 12.7 mph 20.7 mph N/A   Overcast
5:59 AM 44.8 °F 38.3 °F 37.6 °F 76% 29.69 in 10.0 mi WSW 13.8 mph 18.4 mph N/A   Overcast
6:17 AM 45.5 °F 39.2 °F 37.4 °F 73% 29.70 in 10.0 mi West 13.8 mph 19.6 mph N/A   Overcast
6:35 AM 45.9 °F 39.7 °F 35.8 °F 68% 29.70 in 10.0 mi West 13.8 mph 20.7 mph N/A   Overcast
6:55 AM 45.9 °F 39.7 °F 35.2 °F 66% 29.71 in 10.0 mi West 13.8 mph 20.7 mph N/A   Overcast
6:56 AM 46.0 °F 39.9 °F 35.1 °F 66% 29.72 in 10.0 mi West 13.8 mph 20.7 mph N/A   Overcast
7:15 AM 46.4 °F 39.8 °F 34.9 °F 64% 29.73 in 10.0 mi West 16.1 mph 26.5 mph N/A   Overcast
7:20 AM 46.4 °F 39.8 °F 35.4 °F 66% 29.73 in 10.0 mi WSW 16.1 mph 26.5 mph N/A   Overcast
7:38 AM 45.7 °F 37.8 °F 36.0 °F 69% 29.73 in 10.0 mi WSW 20.7 mph 29.9 mph N/A   Overcast
7:56 AM 45.5 °F 38.3 °F 36.0 °F 69% 29.74 in 10.0 mi WSW 17.3 mph 27.6 mph N/A   Overcast
8:15 AM 45.5 °F 38.6 °F 35.4 °F 68% 29.75 in 10.0 mi West 16.1 mph 25.3 mph N/A   Overcast
8:35 AM 45.5 °F 38.3 °F 36.0 °F 69% 29.76 in 10.0 mi WSW 17.3 mph 27.6 mph N/A   Overcast
8:36 AM 45.5 °F 37.8 °F 36.1 °F 70% 29.76 in 10.0 mi WSW 19.6 mph 28.8 mph N/A   Overcast
8:59 AM 45.5 °F 38.3 °F 35.8 °F 69% 29.78 in 10.0 mi WSW 17.3 mph 25.3 mph N/A   Overcast
9:17 AM 45.5 °F 38.6 °F 34.5 °F 65% 29.79 in 10.0 mi WSW 16.1 mph 28.8 mph N/A   Overcast
9:35 AM 45.5 °F 37.8 °F 35.6 °F 68% 29.80 in 10.0 mi WSW 19.6 mph 26.5 mph N/A   Overcast
9:55 AM 45.5 °F 37.8 °F 35.8 °F 69% 29.81 in 10.0 mi WSW 19.6 mph - N/A   Overcast
10:15 AM 45.5 °F 39.2 °F 35.8 °F 69% 29.82 in 10.0 mi WSW 13.8 mph 27.6 mph N/A   Overcast
10:20 AM 46.2 °F 39.5 °F 36.1 °F 68% 29.82 in 10.0 mi WSW 16.1 mph 27.6 mph N/A   Overcast
10:38 AM 45.5 °F 38.6 °F 36.0 °F 69% 29.82 in 10.0 mi WSW 16.1 mph 25.3 mph N/A   Mostly Cloudy
10:56 AM 46.2 °F 39.3 °F 36.1 °F 68% 29.83 in 10.0 mi WSW 17.3 mph 23.0 mph N/A   Scattered Clouds
11:15 AM 46.4 °F 39.5 °F 35.8 °F 67% 29.83 in 10.0 mi WSW 17.3 mph 24.2 mph N/A   Scattered Clouds
11:16 AM 46.4 °F 39.8 °F 35.8 °F 67% 29.84 in 10.0 mi WSW 16.1 mph 24.2 mph N/A   Scattered Clouds
11:35 AM 46.4 °F 39.5 °F 36.0 °F 67% 29.85 in 10.0 mi WSW 17.3 mph 23.0 mph N/A   Scattered Clouds
11:40 AM 46.9 °F - 36.5 °F 67% 29.85 in 10.0 mi West 16.1 mph 23.0 mph N/A   Scattered Clouds
11:58 AM 46.9 °F - 35.8 °F 65% 29.86 in 10.0 mi WSW 16.1 mph 25.3 mph N/A   Scattered Clouds
12:16 PM 46.9 °F - 35.6 °F 65% 29.87 in 10.0 mi WSW 16.1 mph 24.2 mph N/A   Scattered Clouds
12:35 PM 46.0 °F 39.6 °F 35.1 °F 66% 29.87 in 10.0 mi West 15.0 mph 23.0 mph N/A   Mostly Cloudy
1:19 PM 47.8 °F - 37.0 °F 66% 29.88 in 10.0 mi WSW 13.8 mph 24.2 mph N/A   Mostly Cloudy
1:37 PM 47.7 °F - 36.7 °F 66% 29.88 in 10.0 mi SW 16.1 mph 20.7 mph N/A   Mostly Cloudy
1:55 PM 47.3 °F - 36.5 °F 66% 29.88 in 10.0 mi WSW 13.8 mph - N/A   Mostly Cloudy
2:15 PM 48.0 °F - 36.9 °F 65% 29.89 in 10.0 mi WSW 15.0 mph 20.7 mph N/A   Mostly Cloudy
2:35 PM 48.2 °F - 36.9 °F 65% 29.89 in 10.0 mi WSW 16.1 mph 21.9 mph N/A   Mostly Cloudy
2:58 PM 48.6 °F - 37.0 °F 64% 29.88 in 10.0 mi WSW 15.0 mph - N/A   Mostly Cloudy
3:16 PM 49.5 °F - 37.2 °F 63% 29.88 in 10.0 mi SW 15.0 mph 20.7 mph N/A   Mostly Cloudy
3:35 PM 49.8 °F - 36.9 °F 61% 29.88 in 10.0 mi SW 13.8 mph 20.7 mph N/A   Scattered Clouds
3:36 PM 49.8 °F - 36.9 °F 61% 29.88 in 10.0 mi WSW 13.8 mph 20.7 mph N/A   Scattered Clouds
3:55 PM 50.0 °F - 36.7 °F 60% 29.88 in 10.0 mi SW 17.3 mph 23.0 mph N/A   Clear
4:19 PM 50.2 °F - 36.1 °F 59% 29.88 in 10.0 mi SW 15.0 mph 19.6 mph N/A   Clear
4:36 PM 50.5 °F - 35.4 °F 56% 29.88 in 10.0 mi WSW 13.8 mph 17.3 mph N/A   Clear
4:55 PM 50.9 °F - 34.2 °F 53% 29.88 in 10.0 mi SW 13.8 mph 19.6 mph N/A   Clear
4:56 PM 50.9 °F - 34.0 °F 52% 29.88 in 10.0 mi SW 13.8 mph 19.6 mph N/A   Clear
5:15 PM 50.9 °F - 33.3 °F 51% 29.89 in 10.0 mi SW 11.5 mph 17.3 mph N/A   Clear
5:35 PM 50.5 °F - 32.7 °F 51% 29.89 in 10.0 mi SW 13.8 mph - N/A   Clear
5:58 PM 49.8 °F - 31.8 °F 50% 29.90 in 10.0 mi SW 10.4 mph - N/A   Clear
6:16 PM 48.7 °F - 32.0 °F 52% 29.90 in 10.0 mi WSW 10.4 mph - N/A   Clear
6:35 PM 48.6 °F - 32.0 °F 53% 29.91 in 10.0 mi WSW 10.4 mph - N/A   Mostly Cloudy
6:36 PM 48.6 °F - 32.0 °F 53% 29.91 in 10.0 mi WSW 10.4 mph - N/A   Mostly Cloudy
6:55 PM 48.4 °F - 32.0 °F 53% 29.90 in 10.0 mi WSW 5.8 mph - N/A   Overcast
6:56 PM 48.2 °F - 32.0 °F 54% 29.90 in 10.0 mi WSW 4.6 mph - N/A   Overcast
7:19 PM 48.0 °F - 32.5 °F 55% 29.91 in 10.0 mi SW 6.9 mph - N/A   Overcast
7:36 PM 49.5 °F - 38.1 °F 65% 29.92 in 10.0 mi SW 9.2 mph - N/A   Overcast
7:55 PM 48.9 °F - 39.6 °F 70% 29.93 in 10.0 mi SW 5.8 mph - N/A   Overcast
7:56 PM 48.9 °F - 39.6 °F 70% 29.93 in 10.0 mi SW 8.1 mph - N/A   Overcast
8:15 PM 50.0 °F - 38.5 °F 65% 29.93 in 10.0 mi SW 6.9 mph - N/A   Overcast
8:16 PM 50.0 °F - 38.5 °F 65% 29.93 in 10.0 mi SW 6.9 mph - N/A   Overcast
8:35 PM 50.0 °F - 37.8 °F 63% 29.94 in 10.0 mi WSW 6.9 mph - N/A   Overcast
8:40 PM 50.0 °F - 37.8 °F 63% 29.94 in 10.0 mi SW 6.9 mph - N/A   Overcast
8:58 PM 50.0 °F - 39.2 °F 66% 29.95 in 10.0 mi WSW 8.1 mph - N/A   Overcast
9:16 PM 50.4 °F - 38.1 °F 63% 29.97 in 10.0 mi WSW 12.7 mph 16.1 mph N/A   Overcast
9:35 PM 50.4 °F - 41.7 °F 72% 29.97 in 10.0 mi SW 10.4 mph - N/A   Overcast
9:55 PM 50.0 °F - 41.0 °F 71% 29.97 in 10.0 mi WSW 4.6 mph - N/A   Overcast
9:56 PM 50.0 °F - 41.0 °F 71% 29.97 in 10.0 mi WSW 5.8 mph - N/A   Overcast
10:19 PM 50.0 °F - 41.5 °F 73% 29.97 in 10.0 mi WSW 9.2 mph - N/A Rain Rain
10:37 PM 50.4 °F - 33.4 °F 52% 29.98 in 10.0 mi WNW 5.8 mph - N/A Rain Light Rain
10:55 PM 46.2 °F 40.8 °F 36.7 °F 69% 29.98 in 10.0 mi NW 11.5 mph 17.3 mph N/A Rain Light Rain
11:15 PM 44.1 °F 40.1 °F 39.0 °F 82% 29.99 in 10.0 mi NW 6.9 mph - 0.01 in Rain Light Rain
11:16 PM 44.2 °F 40.3 °F 39.0 °F 82% 29.99 in 10.0 mi NW 6.9 mph - 0.01 in Rain Light Rain
11:35 PM 43.2 °F 39.7 °F 40.1 °F 89% 29.99 in 7.0 mi NW 5.8 mph - 0.05 in Rain Rain
11:40 PM 43.0 °F 41.3 °F 40.1 °F 90% 29.99 in 7.0 mi NW 3.5 mph - 0.05 in Rain Rain
11:58 PM 43.0 °F - 40.3 °F 90% 29.99 in 10.0 mi Calm Calm - 0.07 in Rain Light Rain